Location: Mizzole
(45.4833°N, 11.0500°E)
Time: 12:13:36
(UTC+00:00)

SJ-11-01 - Pass Details

Date: 21 October 2019
Orbit: 684 x 701 km, 98.0° (Epoch: 20 November)

Event Time Altitude Azimuth Distance (km) Brightness Sun altitude
Exits shadow 18:46:44 70° 349° (NNW) 736 4.3 -26.2°
Drops below altitude 10° 18:50:54 10° 347° (NNW) 2,147 7.1 -26.9°
Sets 18:53:09 0° 347° (NNW) 3,065 7.9 -27.3°
